Monday, March 02, 2015
14:58 UTC
  |  Log In   |  Register Free
Airport Search:

Meyers-Diver'S Airport
(3TE)

Meyers-Diver'S Airport Diagram
No Airport Diagram Available

FAA data valid effective January 08, 2015 - March 05, 2015 (unless otherwise noted).

 
 
 
 
 
 
 
 
 
 
 
 
 
 

Current Aviation Weather for Meyers-Diver'S Airport (3TE)

METAR data is unavailable for 3TE. The nearest METAR location is at KADG (11.3 nm SW from 3TE).

The most recent METAR observation for KADG was updated at: 1407
METAR Summary (Translated METAR)
KADG
021353Z AUTO 27005KT 6SM HZ CLR M09/M12 A3044 RMK AO2 SLP324 T10941122 TSNO
(11.3 nm SW from 3TE)
KARB
021353Z 28007KT 10SM CLR M07/M12 A3041 RMK AO2 SLP311 T10671122
(14.7 nm NE from 3TE)
TAF
No TAF information found within 50 nm of KADG
  Airport Weather Conditions for 3TE

Current weather conditions are
not available for 3TE


The nearest NOAA weather station
is at ADG, (11.3 nm SW from 3TE)
  
 Current Weather at ADG
15° F
Fair with Haze
West winds at 5.8 mph
ADG NOAA Radar

Pressure: 30.44 in
Humidity: 80%
Wind: West at 5.8 MPH (5 KT)
Dew Point: 10.0°F
Visibility: 6.00 mi


Airport Weather Forecast for 3TE

Translated METAR and TAF for KADG
Translated METAR for KADG (1458 UTC 02 March 2015)
found at http://aviationweather.gov/adds/metars/
 
METAR text: KADG 021453Z AUTO 28006KT 10SM CLR M07/M11 A3045 RMK AO2 SLP327 T10671111 51023 TSNO
Conditions at: KADG (ADRIAN , MI, US) observed 1453 UTC 02 March 2015
Temperature: -6.7°C (20°F)
Dewpoint: -11.1°C (12°F) [RH = 71%]
Pressure (altimeter): 30.45 inches Hg (1031.2 mb)
[Sea-level pressure: 1032.7 mb]
Winds: from the W (280 degrees) at 7 MPH (6 knots; 3.1 m/s)
Visibility: 10 or more miles (16+ km)
Ceiling: at least 12,000 feet AGL
Clouds: sky clear below 12,000 feet AGL
Weather: automated observation with no human augmentation;
there may or may not be significant weather present at this time
Translated TAF for KADG

There is no translated TAF available for this airport

Find All Airport Services Find A Hotel Find A Rental Car Find A Golf Course Find A Restaurant $100 Hamburger



FBO's on the Field
FBO Company Facility Photos Services Transportation Aviation Fuel Prices: Prices include tax
Catering Weather Repair Courtesy Rental Type 100LL JetA JetA+ MOGAS 8087
 
Village of Boyceville

This FBO has not yet been rated
FS:Shell
Last Updated: Jan-21
Login to update fuel prices
SS:
Contact Village of BoycevilleMore FBO Information
 
Add another FBO Facility Photos Catering Weather Repair Courtesy Rental Type 100LL JetA JetA+ MOGAS 8087
Services Transportation Aviation Fuel Prices: Prices include tax


model-print
model-print
model-print
model-print